Oakdale, LA

4:22 PM CST on December 06, 2016 (GMT -0600)
Oakdale

Weather History for KACP - September, 2013

Change the Weather History Date:

Wednesday, September 25, 2013

  Actual Average (KPOE) Record (KPOE)
Temperature  
Mean Temperature 75 °F -  
Max Temperature 90 °F 82 °F 93 °F (2005)
Min Temperature 60 °F 62 °F 51 °F (2001)
Cooling Degree Days 10    
Growing Degree Days 25 (Base 50)    
Moisture  
Dew Point 60 °F    
Average Humidity 73    
Maximum Humidity 97    
Minimum Humidity 25    
Precipitation  
Precipitation 0.01 in - - ()
Sea Level Pressure  
Sea Level Pressure 29.82 in    
Wind  
Wind Speed 1 mph (NNW)    
Max Wind Speed 8 mph    
Max Gust Speed -    
Visibility 7 miles    
Events Fog    
Averages and records for this station are not official NWS values.
T = Trace of Precipitation, MM = Missing Value Source: NWS Daily Summary

Daily Weather History Graph

Daily Weather History Graph

Search for Another Location

Airport or City:

Trip Planner

Search our weather history database for the weather conditions in past years. The results will help you decide how hot, cold, wet, or windy it might be!

Date:

Astronomy

Sep. 25, 2013 Rise Set
Actual Time 7:00 AM CDT 7:03 PM CDT
Civil Twilight 6:36 AM CDT 7:27 PM CDT
Nautical Twilight 6:08 AM CDT 7:55 PM CDT
Astronomical Twilight 5:40 AM CDT 8:23 PM CDT
Moon 11:30 PM CDT (9/25) 12:46 PM CDT (9/25)
Length of Visible Light 12h 50m
Length of Day
12h 02m
Waning Gibbous, 64% of the Moon is Illuminated
Sep 25
Waning Gibbous
Sep 26
Last Quarter
Oct 4
New
Oct 11
First Quarter
Oct 18
Full

Hourly Weather History & Observations

Time (CDT) Temp. Heat Index Dew Point Humidity Pressure Visibility Wind Dir Wind Speed Gust Speed Precip Events Conditions
12:15 AM 65.5 °F - 64.0 °F 95% 29.83 in 5.0 mi Calm Calm - N/A   Clear
12:35 AM 64.9 °F - 63.7 °F 96% 29.83 in 5.0 mi Calm Calm - N/A   Clear
12:55 AM 64.6 °F - 63.5 °F 96% 29.83 in 5.0 mi Calm Calm - N/A   Clear
1:15 AM 64.0 °F - 62.8 °F 96% 29.83 in 5.0 mi Calm Calm - N/A   Clear
1:35 AM 63.9 °F - 62.6 °F 96% 29.83 in 1.0 mi Calm Calm - N/A   Overcast
1:55 AM 63.5 °F - 62.4 °F 96% 29.82 in 0.8 mi Calm Calm - N/A   Overcast
2:15 AM 63.3 °F - 62.1 °F 96% 29.82 in 0.8 mi Calm Calm - N/A   Overcast
2:35 AM 62.6 °F - 61.7 °F 97% 29.82 in 0.2 mi Calm Calm - N/A Fog Fog
2:55 AM 62.4 °F - 61.3 °F 96% 29.82 in 0.5 mi Calm Calm - N/A Fog Fog
3:15 AM 62.4 °F - 61.3 °F 96% 29.81 in 3.0 mi Calm Calm - N/A   Overcast
3:35 AM 61.7 °F - 60.6 °F 96% 29.81 in 4.0 mi Calm Calm - N/A   Overcast
3:55 AM 61.7 °F - 60.8 °F 97% 29.81 in 4.0 mi Calm Calm - N/A   Overcast
4:15 AM 61.2 °F - 60.1 °F 96% 29.81 in 4.0 mi Calm Calm - N/A   Overcast
4:35 AM 61.0 °F - 59.9 °F 96% 29.81 in 1.2 mi Calm Calm - N/A   Overcast
4:55 AM 61.0 °F - 59.9 °F 96% 29.81 in 1.8 mi Calm Calm - N/A   Overcast
5:15 AM 61.7 °F - 60.6 °F 96% 29.81 in 1.0 mi Calm Calm - N/A   Overcast
5:35 AM 61.2 °F - 60.1 °F 96% 29.81 in 1.2 mi Calm Calm - 0.01 in   Overcast
5:55 AM 61.2 °F - 59.9 °F 96% 29.82 in 4.0 mi Calm Calm - 0.01 in   Scattered Clouds
6:15 AM 61.3 °F - 60.3 °F 96% 29.82 in 0.8 mi Calm Calm - N/A   Mostly Cloudy
6:35 AM 61.0 °F - 60.1 °F 97% 29.83 in 0.5 mi NNW 3.5 mph - N/A Fog Fog
6:55 AM 65.7 °F - 64.8 °F 97% 29.84 in 3.0 mi Calm Calm - N/A   Mostly Cloudy
7:15 AM 65.7 °F - 64.6 °F 96% 29.84 in 2.0 mi Calm Calm - N/A   Overcast
7:35 AM 64.4 °F - 63.3 °F 96% 29.85 in 2.5 mi Calm Calm - N/A   Overcast
7:55 AM 66.6 °F - 65.5 °F 96% 29.85 in 2.0 mi Calm Calm - N/A   Mist
8:15 AM 69.8 °F - 68.5 °F 96% 29.85 in 7.0 mi Calm Calm - N/A   Scattered Clouds
8:35 AM 71.2 °F - 68.5 °F 91% 29.85 in 10.0 mi Calm Calm - N/A   Scattered Clouds
9:15 AM 73.9 °F - 68.4 °F 83% 29.86 in 10.0 mi Calm Calm - N/A   Clear
9:35 AM 75.4 °F - 67.6 °F 77% 29.86 in 10.0 mi Calm Calm - N/A   Clear
9:55 AM 77.7 °F - 65.8 °F 67% 29.86 in 10.0 mi NW 3.5 mph - N/A   Clear
10:15 AM 80.2 °F 82.0 °F 64.6 °F 59% 29.87 in 10.0 mi North 3.5 mph - N/A   Clear
10:55 AM 82.8 °F 83.0 °F 60.1 °F 46% 29.87 in 10.0 mi North 6.9 mph - N/A   Clear
11:15 AM 84.4 °F 84.4 °F 60.3 °F 44% 29.87 in 10.0 mi NW 4.6 mph - N/A   Clear
11:35 AM 84.9 °F 84.4 °F 58.8 °F 41% 29.86 in 10.0 mi NNW 5.8 mph - N/A   Clear
11:55 AM 84.6 °F 84.4 °F 59.7 °F 43% 29.86 in 10.0 mi North 4.6 mph - N/A   Clear
12:15 PM 86.7 °F 85.4 °F 56.8 °F 36% 29.85 in 10.0 mi WNW 6.9 mph - N/A   Clear
12:35 PM 86.9 °F 85.3 °F 55.2 °F 34% 29.85 in 10.0 mi WNW 8.1 mph - N/A   Clear
1:15 PM 87.8 °F 85.9 °F 54.3 °F 32% 29.84 in 10.0 mi North 6.9 mph - N/A   Clear
1:35 PM 88.7 °F 86.7 °F 54.3 °F 31% 29.83 in 10.0 mi NW 8.1 mph - N/A   Clear
1:55 PM 88.2 °F 86.3 °F 55.2 °F 32% 29.82 in 10.0 mi West 5.8 mph - N/A   Clear
2:15 PM 88.7 °F - 51.6 °F 28% 29.81 in 10.0 mi NNW 8.1 mph - N/A   Clear
2:35 PM 89.1 °F - 52.3 °F 28% 29.81 in 10.0 mi NW 8.1 mph - N/A   Clear
2:55 PM 89.6 °F - 51.8 °F 27% 29.80 in 10.0 mi NW 5.8 mph - N/A   Clear
3:15 PM 89.8 °F - 52.2 °F 28% 29.80 in 10.0 mi NNW 5.8 mph - N/A   Clear
3:35 PM 89.6 °F - 52.0 °F 28% 29.80 in 10.0 mi North 6.9 mph - N/A   Clear
3:55 PM 89.6 °F - 50.2 °F 26% 29.79 in 10.0 mi NW 6.9 mph - N/A   Clear
4:15 PM 90.0 °F - 49.5 °F 25% 29.79 in 10.0 mi NW 8.1 mph - N/A   Clear
4:35 PM 89.6 °F - 50.5 °F 26% 29.78 in 10.0 mi NW 5.8 mph - N/A   Clear
4:55 PM 89.6 °F - 52.0 °F 28% 29.78 in 10.0 mi NNW 4.6 mph - N/A   Clear
5:15 PM 88.7 °F - 51.3 °F 28% 29.78 in 10.0 mi North 5.8 mph - N/A   Clear
5:35 PM 87.6 °F - 52.9 °F 30% 29.78 in 10.0 mi North 3.5 mph - N/A   Clear
5:55 PM 86.7 °F 85.3 °F 55.8 °F 35% 29.78 in 10.0 mi North 3.5 mph - N/A   Clear
6:15 PM 84.4 °F 83.2 °F 55.8 °F 37% 29.79 in 10.0 mi Calm Calm - N/A   Clear
6:35 PM 79.0 °F - 63.1 °F 58% 29.79 in 10.0 mi Calm Calm - N/A   Clear
6:55 PM 73.8 °F - 64.8 °F 73% 29.80 in 10.0 mi Calm Calm - N/A   Clear
7:15 PM 70.0 °F - 65.3 °F 85% 29.80 in 10.0 mi Calm Calm - N/A   Clear
7:35 PM 68.0 °F - 65.3 °F 91% 29.80 in 10.0 mi Calm Calm - N/A   Clear
7:55 PM 66.9 °F - 64.8 °F 93% 29.81 in 10.0 mi Calm Calm - N/A   Clear
8:15 PM 65.8 °F - 63.7 °F 93% 29.81 in 10.0 mi Calm Calm - N/A   Clear
8:35 PM 65.3 °F - 63.5 °F 94% 29.82 in 10.0 mi Calm Calm - N/A   Clear
8:55 PM 64.4 °F - 62.6 °F 94% 29.82 in 10.0 mi Calm Calm - N/A   Clear
9:15 PM 63.9 °F - 62.1 °F 94% 29.83 in 10.0 mi Calm Calm - N/A   Clear
9:35 PM 63.3 °F - 61.7 °F 94% 29.83 in 10.0 mi Calm Calm - N/A   Clear
9:55 PM 62.6 °F - 61.0 °F 94% 29.83 in 10.0 mi Calm Calm - N/A   Clear
10:15 PM 62.4 °F - 60.8 °F 94% 29.84 in 10.0 mi Calm Calm - N/A   Clear
10:35 PM 61.7 °F - 60.1 °F 94% 29.84 in 10.0 mi Calm Calm - N/A   Clear
10:55 PM 61.7 °F - 60.1 °F 94% 29.84 in 10.0 mi Calm Calm - N/A   Clear
11:15 PM 61.0 °F - 59.4 °F 94% 29.84 in 10.0 mi Calm Calm - N/A   Clear
11:35 PM 60.8 °F - 59.4 °F 95% 29.84 in 10.0 mi Calm Calm - N/A   Clear
11:55 PM 60.8 °F - 59.2 °F 94% 29.84 in 10.0 mi Calm Calm - N/A   Clear